Regional Weather Roundup
Issued by NWS Upton, NY

Current Version | Previous Version | Graphics & Text | Print | Product List | Glossary Off
Versions: 1 2 3 4 5 6 7 8 9 10 11 12 13 14 15 16 17 18 19 20 21 22 23 24 25 26 27 28 29 30 31 32 33 34 35 36 37 38 39 40 41 42 43 44 45 46 47 48 49 50

000
ASUS41 KOKX 022105
RWROKX

REGIONAL WEATHER ROUNDUP
NATIONAL WEATHER SERVICE NEW YORK NY
400 PM EST MON MAR 02 2015

NOTE: "FAIR" INDICATES FEW OR NO CLOUDS BELOW 12,000 FEET WITH NO
SIGNIFICANT WEATHER AND/OR OBSTRUCTIONS TO VISIBILITY.

NYZ071-072-176-178-NJZ106-104-022200-
NEW YORK CITY METRO AREA


CITY           SKY/WX    TMP DP  RH WIND       PRES   REMARKS
CENTRAL PARK   SUNNY     38  11  32 NW9G22    30.18R WCI  31
LAGUARDIA APRT SUNNY     38  15  39 NW18G32   30.15R WCI  28
KENNEDY INTL   MOSUNNY   38  13  35 NW18G29   30.17R WCI  28
NEWARK/LIBERTY MOSUNNY   38  14  37 NW18G28   30.17R WCI  28
BRNX BOT. GARD   N/A    N/A N/A N/A W8        30.17R
TETERBORO      SUNNY     38  13  35 NW20G26   30.15S WCI  28
$$

NYZ177-179-078>081-022200-
LONG ISLAND NEW YORK

CITY           SKY/WX    TMP DP  RH WIND       PRES   REMARKS
FARMINGDALE    SUNNY     37  13  37 NW17G26   30.14R WCI  27
ISLIP          SUNNY     36  13  38 NW17G28   30.11R WCI  26
SHIRLEY        SUNNY     36  13  38 NW20G31   30.13R WCI  25
WESTHAMPTON    SUNNY     37  14  38 NW17G28   30.12R WCI  27
MONTAUK POINT    N/A     36  22  56 W9        30.10R WCI  29
$$

NYZ052-065-067-022200-
HUDSON VALLEY

CITY           SKY/WX    TMP DP  RH WIND       PRES   REMARKS
WHITE PLAINS   MOSUNNY   34  13  41 NW25G32   30.11S WCI  21
NEWBURGH       MOSUNNY   34  14  44 NW21G28   30.14S WCI  22
MONTGOMERY     MOSUNNY   34  12  40 NW17G24   30.14S WCI  23
POUGHKEEPSIE   SUNNY     34  12  40 W18G33    30.15R WCI  23
ALBANY         PTSUNNY   29  14  53 NW28G43   30.14R WCI  14
$$

NJZ001-105-106-008-010-013-015-019>022-104-022200-
NEW JERSEY

CITY           SKY/WX    TMP DP  RH WIND       PRES   REMARKS
NEWARK/LIBERTY MOSUNNY   38  14  37 NW18G28   30.17R WCI  28
TETERBORO      SUNNY     38  13  35 NW20G26   30.15S WCI  28
CALDWELL       SUNNY     37  12  35 NW15G28   30.17R WCI  28
MORRISTOWN     MOSUNNY   39  10  30 NW10G21   30.18R WCI  32
SOMERVILLE     SUNNY     40  11  30 NW15G22   30.17R WCI  32
SUSSEX         MOSUNNY   35  10  35 W13G25    30.17R WCI  26
ANDOVER          N/A     35  10  35 N9G23     30.16R WCI  28
TRENTON        SUNNY     39  12  33 NW16G22   30.19R WCI  30
MILLVILLE      SUNNY     38  17  42 NW20G28   30.24R WCI  28
ATLANTIC CITY  SUNNY     39  17  41 W23G30    30.21R WCI  28
WRIGHTSTOWN    SUNNY     38  15  39 NW18G24   30.17S WCI  28
TOMS RIVER     SUNNY     37  16  41 NW21G29   30.19R WCI  27
BELMAR         SUNNY     37  16  41 W16G22    30.16S WCI  28
$$

PAZ047>061-062-071-022200-
EASTERN PENNSYLVANIA

CITY           SKY/WX    TMP DP  RH WIND       PRES   REMARKS
PHILADELPHIA   MOSUNNY   40  14  34 W20G25    30.25R WCI  30
ALLENTOWN      SUNNY     37  12  35 W17G24    30.20R WCI  27
SCRANTON       SUNNY     32  10  40 NW15G26   30.19S WCI  22
$$

CTZ002-004>006-009-010-012-RIZ004-006-007-MAZ004-011-015-022200-
SOUTHERN NEW ENGLAND
 IN CT

CITY           SKY/WX    TMP DP  RH WIND       PRES   REMARKS
BRADLEY INTL   PTSUNNY   34  14  43 NW18G32   30.09R WCI  23
HARTFORD       PTSUNNY   34  12  40 NW10G22   30.12R WCI  26
DANBURY        SUNNY     34   9  35 NW16G26   30.11R WCI  24
WTRBRY/OXFORD  MOSUNNY   34   9  35 N12G30    30.08R WCI  25
BRIDGEPORT     SUNNY     36  15  42 W18G28    30.12R WCI  26
MERIDEN        MOSUNNY   36  12  37 NW18G25   30.11R WCI  26
NEW HAVEN      MOSUNNY   36  14  40 NW12G18   30.11R WCI  28
CHESTER        FAIR      34  12  40 NW14G28   30.07R WCI  24
GROTON         SUNNY     34  13  41 NW17G29   30.08R WCI  23
WILLIMANTIC    LGT RAIN  34  12  40 W14G26    30.07R WCI  25

 IN RI

CITY           SKY/WX    TMP DP  RH WIND       PRES   REMARKS
PROVIDENCE     MOSUNNY   34  12  40 W21G31    30.05R WCI  22
BLOCK ISLAND   SUNNY     36  16  44 NW14G24   30.06R WCI  27
WESTERLY       SUNNY     36  13  38 NW14G21   30.07R WCI  27

 IN MA

CITY           SKY/WX    TMP DP  RH WIND       PRES   REMARKS
BOSTON         MOSUNNY   33  13  43 W16G28    30.00R WCI  23
WORCESTER      PTSUNNY   28  10  46 W22G32    29.98R WCI  14
WESTFIELD      PTSUNNY   32  11  41 NW28G38   30.09R WCI  18
PROVINCETOWN   MOSUNNY   34  18  51 W23G30    29.98R WCI  22
NANTUCKET      SUNNY     36  17  46 W23G29    30.00R WCI  24
$$

ANZ330-335-338-340-345-350-353-355-022200-
COASTAL MARINE OBSERVATIONS


STATION/POSITION TIME  SKY/WX   TEMP    WIND        PRES    VSBY  WAVE
                                AIR SEA DIR/SP/G                  HT/PER
                 (UTC)          (F)     (DEG/KT/KT) (MB)    (MI)  (FT/S)
NY HARB ENTRANCE 2100            38 38  310/ 17/ 23 1021.2          3/ 7
4S FIRE IS       NOT AVBL
20S FIRE ISLAND  2000               37              1020.5          5/ 5
23SW MTP         2100                                 N/A           6/ 9
HUDSON CANYON    NOT AVBL
EXECUTION ROCKS  NOT AVBL
WESTERN LI SOUND NOT AVBL
CENTRAL LI SOUND NOT AVBL
EASTERN LI SOUND NOT AVBL
ROBBINS REEF     2100            37     320/ 12/ 17 1020.3
$$


>>>>>>>>>>>>>>>>>>>>>>>>>>>> KEY <<<<<<<<<<<<<<<<<<<<<<<<<<<
>                                                          <
>     SKY/WX - SKY CONDITION/PRESENT WEATHER               <
>     TMP    - TEMPERATURE IN FAHRENHEIT                   <
>     DP     - DEWPOINT IN FAHRENHEIT                      <
>     RH     - RELATIVE HUMIDITY IN PERCENT                <
>     WIND   - DIRECTION AND SPEED IN MPH                  <
>     PRES   - MEAN SEA LEVEL PRESSURE IN INCHES OF HG     <
>     WCI    - WIND CHILL INDEX                            <
>     VSB    - VISIBILITY IN MILES                         <
>     HX     - HEAT INDEX                                  <
>     TC     - TEMPERATURE IN CELSIUS                      <
>     VRB    - VARIABLE WIND DIRECTION                     <
>                                                          <
>>>>>>>>>>>>>>>>>>>>>>>>>>>> KEY <<<<<<<<<<<<<<<<<<<<<<<<<<<





USA.gov is the U.S. government's official web portal to all federal, state and local government web resources and services.